Flag for U.S.A. Weather past 2 weeks in Springfield, Massachusetts, U.S.A.

Now
71 °F

Overcast.


Feels Like: 72 °F
Forecast: 65 / 82 °F
Wind: 9 mph from South

Location: Barnes Municipal Airport

Current Time: Aug 31, 2014 at 6:48:06 AM

Latest Report: Aug 31, 2014 at 5:53 AM


Visibility: 10 mi

Pressure: 30.07 "Hg

Humidity: 78%

Dew point: 64 °F

Location of SpringfieldLocation

Historic Weather in Springfield — Graph

°F

Springfield temperature yesterday

Maximum temperature yesterday: 79 °F (at 2:53 PM)
Minimum temperature yesterday: 51 °F (at 5:53 AM)
Average temperature yesterday: 67 °F

Past Weeks' High & Low Weather Summary

 TemperatureHumidityPressure
High89 °F (Aug 27, 4:53 PM)97% (Aug 24, 4:01 AM)30.29 "Hg (Aug 24, 4:01 AM)
Low49 °F (Aug 19, 5:00 AM)34% (Aug 26, 4:53 PM)29.79 "Hg (Aug 17, 3:53 PM)
Average68 °F73%30.03 "Hg
* Reported Aug 16 5:53 AM — Aug 31 5:53 AM, Springfield, Weather by CustomWeather, © 2014

Note: Actual official high and low records may vary slightly from our data, if they occured in-between our weather recording intervals... More about our weather records

Advertising

Springfield weather history for previous 24 hours

 ConditionsComfort  
Time TempWeatherWind HumidityBarometerVisibility
5:53 AM
Aug 31
71 °FOvercast.9 mph78%30.07 "Hg10 mi
4:53 AM71 °FOvercast.8 mph78%30.08 "Hg10 mi
3:53 AM71 °FOvercast.8 mph81%30.08 "Hg10 mi
2:53 AM71 °FOvercast.10 mph78%30.09 "Hg10 mi
1:53 AM70 °FMostly cloudy.8 mph81%30.10 "Hg10 mi
12:53 AM70 °FMostly cloudy.9 mph79%30.12 "Hg10 mi
11:53 PM
Aug 30
70 °FOvercast.6 mph76%30.12 "Hg10 mi
10:53 PM70 °FOvercast.9 mph76%30.13 "Hg10 mi
9:53 PM70 °FOvercast.7 mph73%30.14 "Hg10 mi
8:53 PM70 °FOvercast.9 mph73%30.14 "Hg10 mi
7:53 PM71 °FPartly sunny.10 mph68%30.13 "Hg10 mi
6:53 PM73 °FPartly sunny.9 mph64%30.14 "Hg10 mi
5:53 PM75 °FOvercast.10 mph60%30.15 "Hg10 mi
4:53 PM77 °FPartly sunny.12 mph52%30.15 "Hg10 mi
3:53 PM79 °FPartly sunny.13 mph45%30.16 "Hg10 mi
2:53 PM79 °FPartly sunny.14 mph48%30.19 "Hg10 mi
1:53 PM77 °FPassing clouds.15 mph52%30.20 "Hg10 mi
12:53 PM75 °FOvercast.12 mph55%30.22 "Hg10 mi
11:53 AM74 °FPartly sunny.14 mph57%30.24 "Hg10 mi
10:53 AM71 °FBroken clouds.12 mph63%30.26 "Hg10 mi
9:53 AM67 °FScattered clouds.7 mph73%30.27 "Hg10 mi
8:53 AM63 °FScattered clouds.3 mph78%30.29 "Hg10 mi
7:53 AM57 °FPassing clouds.No wind90%30.29 "Hg10 mi
6:53 AM52 °FClear.No wind93%30.29 "Hg10 mi
Weather by CustomWeather, © 2014

See weather overviewHow to use our weather pages